Regional Weather Roundup
Issued by NWS

Home | Current Version | Previous Version | Text Only | Print | Product List | Glossary On
Versions: 1 2 3 4 5 6 7 8 9 10 11 12 13 14 15 16 17 18 19 20 21 22 23 24 25 26 27 28 29 30 31 32 33 34 35 36 37 38 39 40 41 42 43 44 45 46 47 48 49 50
755
ASUS42 KTBW 241517
RWRFL
FLORIDA REGIONAL WEATHER ROUNDUP
NATIONAL WEATHER SERVICE TAMPA BAY RUSKIN FL
1100 AM EDT THU MAY 24 2018

NOTE: "FAIR" INDICATES FEW OR NO CLOUDS BELOW 12,000 FEET WITH NO
SIGNIFICANT WEATHER AND/OR OBSTRUCTIONS TO VISIBILITY.

FLZ001>010-012>015-112-114-115-241600-
PANHANDLE FLORIDA

CITY           SKY/WX    TMP DP  RH WIND       PRES   REMARKS
PENSACOLA      FAIR      82  69  64 N3        30.09F
PENSACOLA NAS  FAIR      82  71  69 SE6       30.09S
MILTON NAS     FAIR      82  71  69 N6        30.09F
CRESTVIEW      FAIR      81  68  64 CALM      30.10F
DUKE FIELD     MOSUNNY   80  69  68 CALM      30.09F
VALPARAISO     PTSUNNY   83  71  68 NW6       30.08F
MARY ESTHER    MOSUNNY   83  73  72 SW6       30.08S
TRI COUNTY     PTSUNNY   81  73  76 VRB3      30.10S
PANAMA CITY    LGT RAIN  82  72  71 S10       30.09R
TYNDALL AFB    MOSUNNY   82  73  73 S7        30.09S
APALACHICOLA   FAIR      83  74  74 SE9       30.09F

STATION/POSITION SKY/WX   TEMP    WIND        PRES    WAVE   SWELL
                          AIR SEA DIR/SP/G            HT/PER HT/PER
                          (F)     (DEG/KT/KT) (MB)    (FT/S) (FT/S)
30.1N   87.6W              79      70/  6/  8 1019.0F   3/ 6   2/ 6
29.2N   88.2W                 82  110/  4/  6 1018.9F   3/ 7   3/ 7
28.8N   86.0W              79 80   90/  4/  6 1018.9F   3/ 8   3/ 8
PANAMA CITY BEAC           80 81  160/  6/  7 1019.4S
TOWER C                    77     140/  5/  5 1019.5F

$$
FLZ011-016>038-118-127-128-134-139-239-241600-
NORTH FLORIDA

CITY           SKY/WX    TMP DP  RH WIND       PRES   REMARKS
MARIANNA       PTSUNNY   81  74  79 W3        30.09F
TALLAHASSEE    PTSUNNY   79  72  79 CALM      30.10F
PERRY          FAIR      84  69  61 CALM      30.10F
LIVE OAK       MOSUNNY   82  70  65 VRB3      30.11F
CROSS CITY     FAIR      85  70  61 E5        30.10F
LAKE CITY      FAIR      81  64  57 CALM      30.11F
GAINESVILLE    FAIR      86  71  60 CALM      30.13S
WILLISTON      SUNNY     86  75  70 CALM      30.11S HX  95
PALATKA        FAIR      84  73  70 S3        30.11S
MAYPORT NAS    PTSUNNY   83  74  74 E7        30.10S
JACKSONVILLE   PTSUNNY   85  72  65 CALM      30.09F
JAX NAS        PTSUNNY   82  71  69 S6        30.11S
JAX CECIL      MOSUNNY   86  77  74 VRB3      30.10F HX  97
FERNANDINA BEA FAIR      80  72  74 S3        30.09F
ST AUGUSTINE   FAIR      84  73  69 S7        30.11F
PALM COAST     MOSUNNY   81  70  69 CALM      30.11S

STATION/POSITION SKY/WX   TEMP    WIND        PRES    WAVE   SWELL
                          AIR SEA DIR/SP/G            HT/PER HT/PER
                          (F)     (DEG/KT/KT) (MB)    (FT/S) (FT/S)
SHELL POINT      NOT AVBL
KEATON BEACH               80     240/  5/  5 1019.4F
CEDAR KEY                  78     120/  3/  4 1019.6F
FERNANDINA                 84 80  330/  1/  2 1020.2F
30.7N   81.3W                 77                N/A     2/ 8
MAYPORT                    80 79   90/  5/  7 1019.6F
31.4N   80.9W              76 77  180/  6/  6 1019.4S   2/ 8   2/ 8
ST AUGUSTINE               77 78  140/  9/  9 1019.9S

$$
FLZ040-043>046-052-053-057-058-063-144-241600-
INTERIOR CENTRAL FLORIDA

CITY           SKY/WX    TMP DP  RH WIND       PRES   REMARKS
OCALA          FAIR      83  72  69 S6        30.11F
LEESBURG       FAIR      83  71  67 CALM      30.12S
SANFORD        FAIR      83  70  64 S7        30.11S
ORLANDO EXEC   FAIR      84  70  62 VRB3      30.10F
ORLANDO INTL   FAIR      85  72  65 SE6       30.11S
KISSIMMEE      FAIR      82  71  69 VRB5      30.12F
WINTER HAVEN   FAIR      83  70  64 E6        30.12F
LAKELAND       PTSUNNY   82  72  69 SE3       30.11F
BARTOW         MOSUNNY   81  68  65 E5        30.11F
SEBRING        FAIR      86  70  58 SE6       30.10F
OKEECHOBEE     PTSUNNY   81  72  74 CALM      30.09F

$$
FLZ041-047-054-059-064-141-147-241600-
EAST CENTRAL FLORIDA

CITY           SKY/WX    TMP DP  RH WIND       PRES   REMARKS
ORMOND BEACH   MOSUNNY   81  72  74 CALM      30.11F
DAYTONA BEACH  FAIR      82  72  71 SW5       30.11F
DELAND         PTSUNNY   84  72  65 E3        30.11S
NEW SMYRNA BEA MOSUNNY   82  72  69 CALM      30.12F
JFK SPACE CTR  CLOUDY    84  66  54 CALM      30.10F
TITUSVILLE     MOSUNNY   84  66  54 SE6       30.11F
CAPE CANAVERAL FAIR      83  73  71 E6        30.09F
PATRICK AFB    FAIR      82  76  81 NE6       30.10F
MELBOURNE      PTSUNNY   83  73  72 NE9       30.10F
VERO BEACH     PTSUNNY   81  71  71 E7        30.11S
FT PIERCE      PTSUNNY   83  74  74 E8        30.10S
STUART         PTSUNNY   81  73  78 E6        30.11S

STATION/POSITION SKY/WX   TEMP    WIND        PRES    WAVE   SWELL
                          AIR SEA DIR/SP/G            HT/PER HT/PER
                          (F)     (DEG/KT/KT) (MB)    (FT/S) (FT/S)
28.5N   80.2W              79 78  330/  2/  2 1019.9F   2/ 8   2/ 8
28.9N   78.5W              78 79  170/  6/ 10 1020.6S   3/ 9   3/ 9
TRIDENT PIER               82 80   90/  4/  8 1021.1F
28.4N   80.5W                 80                N/A     2/ 8
27.5N   80.2W                 79                N/A     2/ 8

$$
FLZ050-056-061-142-242-148-248-149-249-151-251-155-255-
160-260-241600-
WEST CENTRAL FLORIDA

CITY           SKY/WX    TMP DP  RH WIND       PRES   REMARKS
CRYSTAL RIVER  FAIR      82  72  69 E5        30.10F
INVERNESS      FAIR      84  73  70 CALM      30.11S
BROOKSVILLE    FAIR      84  71  65 SE5       30.11S
CLEARWATER AIR PTSUNNY   81  70  69 S5        30.10S
ST PETE CLEARW PTSUNNY   81  74  79 VRB3      30.10F
TAMPA INTL     PTSUNNY   82  72  71 CALM      30.11S
TAMPA EXEC     CLOUDY    81  73  78 CALM      30.11F
MACDILL AFB    CLOUDY    81  74  79 S5        30.10
PETER O KNIGHT CLOUDY    81  73  78 CALM      30.11S
ST PETERSBURG  CLOUDY    80  75  84 E5        30.09S
SARASOTA       PTSUNNY   82  73  74 E5        30.08F
VENICE         PTSUNNY   84  73  70 NE8       30.09F

STATION/POSITION SKY/WX   TEMP    WIND        PRES    WAVE   SWELL
                          AIR SEA DIR/SP/G            HT/PER HT/PER
                          (F)     (DEG/KT/KT) (MB)    (FT/S) (FT/S)
27.3N   84.2W                 79                N/A     2/ 5
CLEARWATER BEACH           81 82  110/  5/  7 1019.4F
MIDDLE TAMPA BAY           78      50/  3/  4 1019.5F
VENICE                     82 80   70/  6/  8 1019.0F

$$
FLZ066-069-070-075>078-162-262-165-265-241600-
SOUTHWEST FLORIDA AND KEYS

CITY           SKY/WX    TMP DP  RH WIND       PRES   REMARKS
PUNTA GORDA    CLOUDY    84  71  65 E7        30.10F
FT MYERS       FAIR      84  73  69 E8        30.08S
SOUTHWEST INTL FAIR      82  73  74 E6        30.08F
NAPLES         FAIR      80  77  90 NE8       30.08S
MARCO ISLAND   PTSUNNY   79  74  84 E9        30.09S
IMMOKALEE      PTSUNNY   82  73  74 SE7       30.10S
MARATHON       FAIR      84  73  69 E8        30.07R
KEY WEST NAS   CLOUDY    81  73  76 E13       30.07R
KEY WEST INTL  FAIR      82  76  81 E10       30.07R

STATION/POSITION SKY/WX   TEMP    WIND        PRES    WAVE   SWELL
                          AIR SEA DIR/SP/G            HT/PER HT/PER
                          (F)     (DEG/KT/KT) (MB)    (FT/S) (FT/S)
NAPLES                     79 80              1018.7R
26.0N   85.6W              81 83   80/ 10/ 14 1018.0
DRY TORTUGAS               79      90/ 13/ 14 1017.8R
SAND KEY                   80                 1018.1R
SOMBRERO KEY               80                 1017.5R
LONG KEY                   80 79  110/  9/ 10 1018.2R
MOLASSES REEF              80 80  110/ 11/ 12 1018.4R

$$
FLZ067-068-071>074-168-172>174-241600-
SOUTHEAST FLORIDA

CITY           SKY/WX    TMP DP  RH WIND       PRES   REMARKS
W PALM BEACH   PTSUNNY   83  74  74 SE14      30.09S
FT LAUDER-EXEC FAIR      82  74  76 SE14      30.08S
FT LAUDERDALE  PTSUNNY   82  76  81 E13       30.08R
POMPANO BEACH  FAIR      83  72  69 SE13      30.09R
PEMBROKE PINES PTSUNNY   84  73  69 E15       30.10S
OPA LOCKA      PTSUNNY   84  73  69 SE13      30.09S
MIAMI          CLOUDY    82  73  74 SE13      30.08S
WEST KENDALL   PTSUNNY   84  72  67 E12       30.08S
HOMESTEAD      FAIR      83  73  72 E8        30.07S

STATION/POSITION SKY/WX   TEMP    WIND        PRES    WAVE   SWELL
                          AIR SEA DIR/SP/G            HT/PER HT/PER
                          (F)     (DEG/KT/KT) (MB)    (FT/S) (FT/S)
PORT EVERGLADES            83     100/  3/  6 1018.8
VIRGINIA KEY               81 81   90/  8/ 10 1018.3R
LAKE WORTH                 79 79  150/ 10/ 11 1020.1R
FOWEY ROCKS                79 78  100/ 11/ 12 1019.3R
SETTLEMENT POINT           80     120/  9/ 12 101



USA.gov is the U.S. government's official web portal to all federal, state and local government web resources and services.